Location: Namasale
(1.5000°N, 32.6167°E)
Time: 17:51:29
(UTC+00:00)

Courier 1B - Pass Details

Date: 23 April 2021
Orbit: 962 x 1209 km, 28.3° (Epoch: 18 May)

Event Time Altitude Azimuth Distance (km) Brightness Sun altitude
Rises 16:43:50 0° 300° (WNW) 3,653 12.1 -13.3°
Reaches altitude 10° 16:46:25 10° 300° (WNW) 2,726 11.1 -13.9°
Maximum altitude 16:53:03 90° 320° (NW) 1,019 7.6 -15.5°
Enters shadow 16:57:42 23° 120° (ESE) 2,066 8.6 -16.7°
Drops below altitude 10° 17:00:05 10° 120° (ESE) 2,887 - -17.3°
Sets 17:02:54 0° 120° (ESE) 3,882 - -17.9°
